User: anonymous   Login
Location: Bazugues
(43.4465°N, 0.3432°E)
Time: 00:07:03
(UTC+00:00)
Language:

Cosmos 1452 Rocket - Orbit

View from above orbital plane
View from above orbital plane
View from above satellite
View from above satellite

Ground track
Ground track

The orbit is defined by the following mean orbital elements,

1 13992U          26074.52151873 +.00000000 +00000-0 +96934-4 0 00003
2 13992  74.0502 266.3613 0005105 184.7685 175.3421 14.37556547    01
Epoch (UTC): 15 March 2026 12:30:59
Eccentricity: 0.0005105
inclination: 74.0502°
perigee height: 763 km
apogee height: 770 km
right ascension of ascending node: 266.3613°
argument of perigee: 184.7685°
revolutions per day: 14.37556547
mean anomaly at epoch: 175.3421°

The dashed part of the orbit path shows where the satellite is in the earth's shadow,  

DLR